Theta_e
329 327 327 320 310 310 305 309 315 312 311 316 317 315 315 316 315 317 342 341 353 349 357 359 365 366 367 365 363 362 362 362 362 362 362 363 363 362 361 361 359 356 353 350 346 343 340 338 336
323 325 322 315 306 303 306 313 312 313 314 316 316 315 314 314 326 329 337 345 354 351 358 356 363 365 366 365 364 362 362 362 362 362 362 363 363 362 360 359 358 355 350 347 343 340 339 340 338
323 326 315 309 306 303 306 312 311 315 315 314 314 318 317 319 326 331 341 344 355 352 355 359 362 364 365 365 364 363 362 362 362 362 363 362 362 361 360 358 357 353 348 344 342 342 342 340 339
320 320 317 305 302 309 311 314 315 313 315 316 315 313 321 328 328 334 342 344 345 352 350 359 361 363 364 365 364 363 363 362 362 363 363 363 362 360 358 358 356 353 349 346 345 345 344 341 339
319 316 306 305 305 309 312 315 318 311 312 314 315 312 318 327 330 336 343 344 344 350 350 358 360 362 364 364 364 364 364 363 363 363 363 362 361 359 358 356 355 352 350 348 346 346 345 345 343
311 314 304 301 304 310 313 315 317 315 315 314 313 313 317 328 326 332 343 344 345 348 353 358 359 361 361 362 362 362 362 362 362 363 362 361 360 358 357 355 353 352 351 350 349 348 346 346 346
308 307 303 304 304 307 311 315 311 312 313 315 318 313 320 323 326 329 341 343 347 348 357 358 355 358 361 360 360 360 360 360 360 360 359 359 358 356 355 354 353 353 352 351 351 350 348 348 347
311 308 303 304 305 305 313 314 315 313 312 321 321 313 315 323 326 327 330 341 343 344 356 358 353 352 354 356 359 359 359 359 359 358 358 357 356 355 354 351 352 352 352 352 352 350 349 349 348
314 303 301 302 304 307 313 312 317 318 314 318 320 320 322 325 324 324 326 338 338 341 354 355 348 351 351 351 355 358 358 358 358 357 357 354 350 350 349 348 350 352 352 352 352 351 350 349 348
307 303 302 308 309 308 311 312 314 313 313 314 317 322 324 324 322 321 321 324 337 338 343 352 347 349 350 346 355 353 352 353 352 351 354 351 347 349 343 347 351 352 352 352 352 352 351 348 339
307 303 307 309 311 311 310 310 314 312 311 314 315 319 322 322 322 320 319 323 329 341 342 349 349 352 349 346 354 351 351 350 350 350 352 350 347 349 347 348 343 346 349 341 346 344 343 338 336
303 307 308 309 311 310 309 312 310 311 313 318 319 321 320 321 322 320 318 319 325 336 343 349 352 354 352 348 351 352 347 349 349 349 353 354 349 353 353 347 344 345 345 341 342 340 342 341 342
303 305 307 309 309 309 310 308 308 309 314 317 319 318 319 319 322 327 325 320 323 334 341 345 351 359 359 363 361 354 346 349 349 351 353 351 352 350 353 355 350 349 348 344 343 341 345 344 344
305 305 305 307 307 308 306 306 307 310 314 315 316 316 317 317 317 320 323 328 333 338 342 341 354 357 359 363 367 366 362 349 351 351 351 355 354 357 356 355 355 351 349 346 344 344 344 342 341
306 301 303 304 305 304 306 302 303 309 311 310 312 314 316 316 316 316 323 328 333 331 338 341 344 355 354 355 361 362 360 357 359 354 360 355 358 360 355 354 350 350 348 348 347 347 347 344 345
301 301 296 302 304 305 304 297 304 309 309 308 309 311 313 315 316 322 323 327 330 332 332 338 337 346 355 356 356 357 356 357 356 356 361 358 357 359 360 352 350 349 348 345 342 343 339 340 341
299 293 296 299 305 304 303 298 304 308 308 308 309 311 311 313 318 324 322 325 324 328 331 334 339 342 354 351 355 354 353 352 353 353 353 357 358 355 355 350 350 351 346 343 343 343 343 341 344
294 295 298 298 302 303 300 300 304 306 306 307 309 309 310 312 314 322 321 323 326 329 334 336 337 340 345 351 351 351 351 350 349 346 347 350 351 353 353 351 349 350 342 341 342 343 346 344 345
300 298 296 300 303 301 300 300 302 305 306 306 307 309 310 312 315 318 321 322 325 330 332 333 337 338 341 345 345 346 346 347 347 348 345 348 346 348 349 348 347 346 341 339 345 344 346 342 345
298 296 295 298 301 300 299 298 302 304 305 307 308 309 310 311 313 317 321 321 324 328 332 333 332 337 335 342 345 345 347 350 350 346 345 347 347 346 345 345 342 343 342 344 344 345 341 344 345
297 295 295 295 299 301 299 296 299 303 305 307 308 310 311 311 311 314 318 319 322 327 329 331 334 333 337 337 337 336 336 340 343 347 345 348 347 347 346 345 343 340 347 340 344 344 345 339 343
293 299 298 297 295 290 299 289 297 301 302 305 306 308 309 310 312 314 315 318 321 323 328 328 330 331 332 339 339 338 334 328 330 336 339 347 348 345 346 347 348 345 341 345 342 347 344 344 335
296 300 298 297 294 294 294 290 295 300 299 302 306 307 308 309 311 310 312 317 317 320 324 328 333 333 332 334 334 335 336 333 333 338 342 343 349 346 345 346 345 346 344 341 344 348 345 345 340
302 298 297 296 294 287 292 291 292 296 300 302 305 306 307 308 309 311 313 316 317 318 320 327 330 333 334 333 334 335 335 335 334 332 334 336 340 347 347 345 344 345 344 345 345 343 346 341 337
299 294 287 285 286 286 295 292 293 300 301 302 303 305 306 309 309 312 313 313 315 317 320 323 326 328 331 332 333 332 331 334 336 335 331 332 332 336 348 347 342 344 346 346 347 343 343 344 345
297 295 288 281 283 287 294 288 293 303 304 304 306 306 306 306 308 310 313 315 314 318 322 322 325 327 329 330 332 334 333 331 330 332 331 330 331 333 339 349 343 341 347 343 346 345 345 347 350
296 292 297 289 291 286 290 294 299 302 302 303 303 304 305 307 310 310 311 314 317 317 322 324 324 323 327 328 332 332 333 335 335 337 337 334 335 334 336 339 339 351 351 347 348 347 347 350 351
298 300 290 290 281 280 286 288 290 297 298 301 301 303 305 308 308 309 311 314 316 319 324 325 325 323 324 327 329 327 330 333 334 336 334 337 337 338 338 337 338 343 353 352 352 350 349 348 351
294 292 292 292 290 283 282 286 298 297 300 301 302 304 306 307 308 309 311 313 315 318 316 322 322 322 324 326 327 327 327 330 331 332 332 334 337 337 340 339 339 336 341 353 352 351 351 350 351
297 294 293 286 285 288 286 287 299 300 302 301 301 304 306 307 307 309 310 312 313 314 314 316 322 321 322 322 322 325 327 326 328 329 330 332 332 334 336 338 340 339 336 345 351 351 352 350 349
Wind_Speed
17 16 11 9 7 8 15 18 21 2 6 7 12 11 9 15 15 7 15 11 23 19 15 16 16 20 17 15 14 15 15 15 15 14 14 13 13 13 12 11 10 11 10 8 6 6 6 6 6
11 16 8 6 9 12 14 18 19 9 15 13 10 7 10 4 18 10 15 9 22 19 15 14 12 18 18 16 14 14 15 15 15 14 14 14 13 13 12 10 10 10 9 8 7 5 5 6 5
14 15 7 4 11 13 17 11 16 11 10 4 3 2 8 7 15 7 13 8 21 17 15 13 13 13 18 16 13 13 15 15 14 14 13 13 12 12 11 10 9 8 8 7 6 5 4 4 4
8 7 7 11 16 18 22 19 9 15 7 4 4 5 5 13 7 9 9 4 4 20 16 18 15 13 18 17 13 11 12 14 14 14 14 13 13 11 11 9 9 9 8 8 6 5 3 2 2
9 7 11 16 17 17 17 17 14 9 13 4 5 10 2 12 9 9 8 6 8 17 18 18 18 15 17 20 16 11 9 9 11 12 12 12 12 11 11 10 7 7 7 7 7 5 3 1 1
10 11 14 15 19 20 15 4 11 9 16 19 11 2 9 13 12 9 7 8 8 14 19 16 19 15 16 18 20 15 13 11 8 9 10 11 11 11 10 9 7 6 6 7 7 6 4 3 2
14 12 17 21 19 22 17 15 10 13 16 22 16 15 4 16 11 9 4 2 7 13 19 15 14 14 12 16 19 18 14 13 11 9 8 9 9 9 9 8 7 6 6 6 6 6 6 5 4
13 13 23 20 18 22 19 11 13 9 12 15 13 12 4 10 12 12 10 4 7 11 20 16 14 14 11 10 13 17 16 14 12 11 10 9 10 8 7 8 7 7 6 6 6 7 6 6 7
20 16 16 23 23 20 20 17 16 15 10 14 12 21 22 7 12 13 9 4 3 10 18 15 15 14 12 11 11 12 16 15 13 12 12 9 6 8 9 9 11 10 8 6 6 7 8 9 10
19 17 24 22 22 20 21 20 18 18 15 14 19 18 18 11 8 14 13 10 5 5 15 17 15 14 13 11 12 10 10 8 8 8 10 6 6 7 10 11 12 11 9 7 7 8 9 9 6
21 22 22 22 21 22 23 24 23 16 15 13 20 23 19 17 8 9 14 13 10 5 5 17 15 13 13 10 10 6 6 6 7 9 7 7 6 5 6 4 6 5 8 5 8 8 6 8 6
24 24 24 23 23 23 23 23 22 24 14 19 20 21 24 19 3 10 13 18 7 7 7 12 14 13 11 8 9 9 7 7 7 9 9 6 5 5 5 5 8 7 6 8 6 6 8 10 8
22 22 22 22 22 24 22 25 25 23 21 16 17 15 15 19 15 3 4 11 15 4 9 6 11 10 7 4 2 6 10 8 8 9 10 8 7 5 5 4 6 7 6 8 7 7 5 7 8
18 18 19 21 20 21 23 20 22 26 21 17 18 17 15 14 14 14 5 1 8 7 8 13 6 7 7 1 3 2 3 8 9 8 10 11 7 6 4 5 4 4 4 6 7 6 6 7 7
15 18 19 21 16 21 21 23 25 23 23 21 22 20 16 15 16 16 8 9 5 5 6 6 8 8 8 8 4 2 3 1 1 5 9 14 9 6 7 5 5 5 4 6 4 4 4 4 3
16 16 17 19 23 24 21 25 22 21 20 23 23 20 19 13 17 10 7 9 7 4 2 3 5 6 6 5 5 3 3 2 2 3 3 11 9 7 5 5 5 5 5 4 4 4 4 4 4
14 16 21 22 22 20 24 25 22 20 20 20 18 15 17 10 13 8 8 11 8 5 3 1 2 3 5 6 4 6 4 4 4 3 2 5 10 11 6 6 4 6 5 5 5 4 5 4 4
18 19 15 17 14 9 14 18 17 21 18 20 15 12 11 13 13 7 12 12 10 7 3 3 5 5 3 3 6 5 6 4 6 5 5 7 5 7 8 6 7 5 5 5 5 6 5 4 4
18 18 17 20 19 15 16 16 13 17 18 17 13 14 13 13 12 16 15 12 9 8 6 4 4 7 5 2 3 3 6 5 4 5 9 8 8 10 9 8 4 7 6 7 4 5 5 2 2
14 17 19 20 20 19 20 21 17 15 20 20 18 16 16 16 12 12 10 8 11 7 4 4 3 3 5 3 1 1 5 3 4 7 6 8 11 11 10 10 10 7 7 6 6 6 4 2 3
14 18 18 20 19 22 21 19 18 22 23 23 23 18 14 13 15 15 11 10 4 9 8 3 4 5 2 4 2 1 3 3 1 4 6 7 10 14 15 14 11 10 6 8 7 5 4 3 5
16 18 17 18 17 16 14 17 20 20 18 17 12 16 15 18 14 18 18 11 6 4 3 8 5 3 5 3 1 3 2 1 4 8 6 6 11 11 11 11 12 12 8 5 7 5 5 5 3
17 15 17 20 18 19 22 15 17 20 22 21 19 17 12 7 9 4 4 6 6 2 3 5 4 5 6 5 8 3 4 1 3 4 7 9 9 13 15 12 14 10 9 10 9 6 6 5 6
16 14 16 21 15 17 24 21 21 19 21 17 13 9 8 10 8 11 7 5 6 10 9 5 3 4 4 3 4 8 8 5 3 4 2 4 5 6 11 15 14 12 11 10 7 4 5 11 15
17 18 13 16 14 17 23 21 11 21 5 8 11 9 6 7 8 11 14 15 14 13 10 7 7 5 5 6 5 6 4 6 3 4 5 5 5 5 9 13 10 9 12 12 11 9 10 19 17
18 17 10 14 16 17 24 13 10 12 19 12 9 15 14 12 7 9 11 6 3 4 8 7 5 5 6 5 5 6 6 3 4 7 8 7 6 6 7 8 13 16 11 9 5 9 14 19 14
15 17 18 12 10 13 17 28 24 17 17 8 12 9 8 7 9 7 4 4 7 8 7 6 7 6 7 7 5 4 4 6 6 6 6 5 6 7 8 7 7 10 9 10 10 12 17 15 14
19 16 16 7 6 11 16 17 13 15 13 18 14 12 11 9 9 4 8 9 8 6 6 8 7 8 10 6 4 5 6 7 5 4 7 6 7 7 9 11 10 10 12 13 13 12 15 16 13
12 14 8 16 15 16 16 15 6 2 9 8 13 11 11 13 9 13 10 6 7 5 8 8 10 10 5 5 5 6 6 5 5 6 8 8 7 9 11 11 12 12 12 13 13 15 16 18 16
19 14 19 6 6 12 8 19 12 5 5 11 28 12 14 10 12 11 9 8 6 5 8 8 7 5 3 4 6 5 5 5 6 6 8 10 9 11 12 14 12 13 14 13 15 17 17 18 15
Wind_Direction
302 303 312 288 250 228 254 255 262 283 348 4 30 1 343 8 30 56 46 27 114 128 145 155 148 138 141 144 149 146 145 141 144 142 136 135 131 132 131 128 128 129 125 123 123 116 108 99 90
297 299 289 278 261 257 250 242 283 57 72 41 10 332 310 329 39 68 69 27 118 134 144 158 156 141 140 142 151 151 149 146 147 146 142 140 140 137 135 135 137 136 137 135 133 126 121 115 112
267 267 285 245 248 251 259 46 352 46 81 81 344 21 337 31 45 19 9 360 122 137 150 149 153 149 138 140 148 153 152 148 150 149 147 144 143 140 140 141 143 141 141 139 135 126 121 116 111
283 274 232 257 260 256 254 290 351 322 56 356 299 331 98 62 43 16 348 310 193 145 157 141 150 155 141 140 142 148 154 152 153 152 150 147 145 142 137 147 152 155 152 143 134 128 122 111 86
261 263 268 257 246 250 276 292 295 311 317 321 213 238 193 103 56 9 5 310 228 150 157 153 151 156 150 142 140 141 145 144 150 152 151 150 145 144 146 151 160 154 149 147 147 144 147 172 149
265 249 253 257 257 252 247 155 260 263 291 310 286 248 282 88 46 359 40 317 209 155 138 152 151 154 156 148 142 142 138 134 139 144 150 150 147 150 152 149 157 162 162 161 162 156 175 194 225
249 260 253 254 261 274 265 158 187 215 268 273 331 325 117 51 21 338 86 74 268 149 131 143 160 156 158 153 147 142 139 137 136 136 141 144 145 150 152 154 161 170 172 175 169 165 193 210 222
248 245 258 260 263 259 267 163 175 213 231 238 262 284 351 44 1 333 336 87 228 169 133 143 161 172 173 162 150 143 141 140 136 137 141 144 144 149 155 166 176 185 185 191 184 182 205 220 222
241 245 249 252 256 262 269 266 183 185 221 237 257 264 314 65 15 333 343 118 234 191 137 144 165 170 180 173 158 143 144 142 144 148 150 150 186 173 174 197 183 189 194 206 210 201 203 219 228
235 241 243 249 258 270 272 272 263 176 190 220 232 257 278 326 34 336 331 334 140 231 162 143 160 168 182 185 156 173 169 172 174 178 167 191 207 181 197 192 184 189 191 203 225 224 221 230 253
230 245 254 253 258 261 264 274 279 249 199 208 211 254 257 284 18 337 336 343 339 262 203 144 155 159 184 205 146 171 180 184 182 186 176 183 202 225 194 150 170 182 199 207 209 221 228 231 231
251 246 251 257 263 272 277 281 273 271 252 194 205 218 250 252 251 342 342 329 305 341 316 139 152 157 182 185 159 165 187 179 183 184 180 173 204 204 201 156 186 192 182 203 226 215 222 211 229
247 254 256 266 262 264 273 272 281 277 273 279 208 191 219 255 259 225 313 329 327 328 301 170 147 140 167 203 125 173 178 176 183 175 184 190 184 218 184 219 202 184 182 195 206 218 211 208 216
273 267 270 264 270 274 267 261 269 268 267 261 266 190 203 235 258 269 184 10 357 23 9 352 137 118 119 219 358 328 261 178 177 181 183 185 196 181 213 189 223 241 207 194 202 206 208 211 223
275 269 268 269 261 264 263 258 245 259 266 265 255 258 216 205 248 240 194 121 93 62 8 344 312 144 158 191 189 189 296 275 178 184 172 183 187 190 197 187 216 212 248 232 245 248 235 238 280
270 264 265 257 246 242 241 256 255 252 252 254 257 258 254 213 233 223 141 115 102 79 81 336 327 322 163 178 165 197 232 325 252 309 155 168 183 196 189 210 201 212 215 220 222 228 250 238 224
241 254 254 255 242 237 227 239 249 251 260 263 234 264 247 224 242 175 142 128 127 124 168 268 51 330 173 188 213 163 204 207 265 224 243 190 177 195 213 211 229 199 227 223 213 219 225 238 239
270 262 273 263 254 201 239 264 275 273 267 268 224 246 264 272 275 202 171 146 135 138 139 176 124 108 330 209 212 153 191 209 206 231 210 210 181 189 194 226 223 215 218 235 218 215 220 226 241
276 295 300 293 299 310 275 247 260 287 281 257 225 231 232 244 233 258 165 147 139 141 159 231 177 141 136 218 190 163 188 203 219 227 217 194 185 204 205 215 215 245 227 240 243 242 213 253 283
296 286 279 279 278 277 275 270 272 272 275 274 266 221 211 216 214 250 148 140 148 150 149 242 252 149 135 147 212 227 188 169 221 229 222 221 194 192 207 212 208 223 237 240 241 250 236 150 241
259 264 274 281 291 291 292 282 275 266 257 254 256 258 247 223 203 196 188 161 194 153 152 232 258 259 189 116 253 190 290 152 144 269 249 232 204 187 200 197 212 207 214 238 234 238 281 347 265
273 275 282 292 289 283 281 282 276 284 285 243 262 230 243 228 242 189 198 152 173 257 179 161 192 233 259 177 213 285 227 238 218 236 256 263 228 204 209 202 204 206 216 220 236 196 178 161 251
271 291 302 297 288 286 272 268 272 266 260 251 242 208 220 224 144 166 170 159 182 285 263 263 225 202 226 224 138 247 279 225 258 232 232 229 229 214 204 199 211 195 197 217 227 181 179 217 169
266 289 283 276 270 256 262 255 261 255 255 271 215 169 183 186 170 162 166 142 180 211 223 184 271 285 278 269 246 181 196 229 228 269 280 278 257 240 225 208 212 197 203 215 177 183 262 220 241
238 259 259 258 242 251 253 261 341 293 245 347 132 150 168 173 174 167 171 190 201 201 199 182 202 230 243 250 239 248 258 260 254 285 278 268 283 270 222 212 209 204 206 193 180 176 234 246 236
278 246 252 264 278 289 300 286 260 271 319 170 150 174 172 195 189 231 215 166 225 223 184 197 219 204 238 258 266 213 220 227 231 220 218 235 245 256 255 209 222 226 202 211 189 186 219 234 236
286 272 287 308 319 290 282 285 284 249 226 235 171 189 206 183 198 216 182 225 238 218 207 177 191 217 241 238 233 265 274 251 247 262 265 263 265 276 274 276 252 233 234 228 214 217 221 223 235
263 263 250 227 249 261 263 270 321 334 327 213 190 200 198 198 203 232 249 239 239 229 203 187 205 219 214 234 274 250 242 260 269 284 280 271 262 268 276 286 289 301 225 222 218 219 231 236 232
304 310 332 318 278 262 272 272 195 272 1 309 237 205 193 211 206 227 226 252 266 253 260 208 204 212 209 234 223 248 276 255 259 273 280 279 271 269 266 253 265 264 273 217 222 223 227 226 221
309 243 264 247 308 277 259 270 288 134 339 26 313 280 266 211 233 248 228 223 239 272 270 271 248 203 246 256 254 252 245 284 285 260 262 273 273 278 279 280 255 249 249 247 220 231 228 220 208